{"data":{"norad_id":66945,"epoch":"2026-05-25T00:01:53.927904Z","epoch_age_seconds":74271,"freshness":"FRESH","line1":"1 66945U 25286W   26145.00131861  .00023168  00000+0  69444-3 0  9990","line2":"2 66945  53.1610   3.7613 0000611  60.0626 300.0437 15.34411753 27107","mean_motion":15.34411753,"eccentricity":6.11e-5,"inclination_deg":53.161,"raan_deg":3.7613,"arg_perigee_deg":60.0626,"mean_anomaly_deg":300.0437,"bstar":0.00069444,"rev_number":2710,"period_min":93.84703924384,"perigee_km":462.25033483293,"apogee_km":463.08628124157,"semimajor_km":6840.8053080372,"source":"CELESTRAK","updated_at":"2026-05-25T13:38:21.389900Z"}}